DAL22E CYYC-KPDX

Flight info

Callsign DAL22E
Flight time N/A
Altitude 38000
Route DUMRA Q890 ROPLA DCT GEG DCT JORAD HHOOD5
Aircraft A21N/M-SDE2E3FGHIRWXY/LB1

Departure

Time 2026-05-06 03:18
Airport Calgary International Airport (CYYC)

Arrival

Time N/A
Airport Portland International Airport (KPDX)
Time Latitude Longitude Altitude Speed Heading
2026-05-06 02:33 51.12914 -114.00943 3549 ft 0 kts 95°
2026-05-06 03:03 51.12914 -114.00944 3551 ft 2 kts 95°
2026-05-06 03:03 51.12915 -114.00975 3549 ft 3 kts 95°
2026-05-06 03:04 51.12918 -114.01005 3550 ft 3 kts 125°
2026-05-06 03:04 51.12934 -114.01020 3545 ft 2 kts 186°
2026-05-06 03:04 51.12938 -114.01019 3546 ft 0 kts 186°
2026-05-06 03:08 51.12937 -114.01019 3546 ft 0 kts 186°
2026-05-06 03:08 51.12932 -114.01021 3543 ft 3 kts 189°
2026-05-06 03:09 51.12896 -114.01038 3550 ft 8 kts 206°
2026-05-06 03:09 51.12842 -114.01093 3550 ft 9 kts 218°
2026-05-06 03:09 51.12796 -114.01180 3545 ft 11 kts 223°
2026-05-06 03:09 51.12731 -114.01272 3548 ft 14 kts 221°
2026-05-06 03:10 51.12659 -114.01374 3547 ft 0 kts 221°
2026-05-06 03:10 51.12654 -114.01381 3549 ft 3 kts 221°
2026-05-06 03:11 51.12619 -114.01435 3546 ft 8 kts 233°
2026-05-06 03:11 51.12601 -114.01551 3548 ft 15 kts 268°
2026-05-06 03:11 51.12597 -114.01719 3547 ft 15 kts 254°
2026-05-06 03:11 51.12521 -114.01787 3547 ft 13 kts 183°
2026-05-06 03:12 51.12432 -114.01789 3542 ft 13 kts 181°
2026-05-06 03:12 51.12345 -114.01790 3548 ft 13 kts 179°
2026-05-06 03:12 51.12246 -114.01787 3549 ft 15 kts 179°
2026-05-06 03:12 51.12135 -114.01790 3553 ft 16 kts 182°
2026-05-06 03:13 51.12020 -114.01792 3554 ft 17 kts 180°
2026-05-06 03:13 51.11885 -114.01793 3556 ft 23 kts 180°
2026-05-06 03:13 51.11690 -114.01791 3557 ft 32 kts 179°
2026-05-06 03:13 51.11463 -114.01786 3555 ft 32 kts 179°
2026-05-06 03:14 51.11248 -114.01790 3558 ft 30 kts 180°
2026-05-06 03:14 51.11025 -114.01792 3555 ft 34 kts 179°
2026-05-06 03:14 51.10791 -114.01792 3562 ft 33 kts 180°
2026-05-06 03:14 51.10598 -114.01788 3561 ft 25 kts 179°
2026-05-06 03:15 51.10428 -114.01790 3559 ft 24 kts 180°
2026-05-06 03:15 51.10256 -114.01791 3564 ft 27 kts 180°
2026-05-06 03:15 51.10049 -114.01789 3565 ft 31 kts 181°
2026-05-06 03:15 51.09864 -114.01791 3569 ft 21 kts 180°
2026-05-06 03:16 51.09719 -114.01814 3568 ft 21 kts 212°
2026-05-06 03:16 51.09685 -114.02027 3577 ft 21 kts 269°
2026-05-06 03:16 51.09769 -114.02149 3571 ft 19 kts 22°
2026-05-06 03:16 51.09876 -114.02141 3565 ft 14 kts 358°
2026-05-06 03:17 51.09897 -114.02142 3565 ft 0 kts 358°
2026-05-06 03:17 51.09904 -114.02142 3565 ft 4 kts 358°
2026-05-06 03:17 51.09916 -114.02143 3562 ft 0 kts 358°
2026-05-06 03:17 51.10021 -114.02149 3566 ft 45 kts 358°
2026-05-06 03:18 51.10563 -114.02140 3561 ft 110 kts
2026-05-06 03:18 51.11543 -114.02134 3551 ft 168 kts 360°
2026-05-06 03:18 51.12790 -114.02065 3940 ft 177 kts
2026-05-06 03:18 51.14065 -114.02097 4465 ft 192 kts 357°
2026-05-06 03:19 51.15349 -114.02611 5245 ft 189 kts 336°
2026-05-06 03:19 51.16413 -114.03972 5635 ft 211 kts 302°
2026-05-06 03:19 51.16682 -114.06264 6191 ft 216 kts 257°
2026-05-06 03:19 51.15900 -114.08209 6994 ft 211 kts 219°
2026-05-06 03:20 51.13131 -114.09944 8379 ft 222 kts 193°
2026-05-06 03:20 51.11624 -114.10317 9290 ft 213 kts 191°
2026-05-06 03:20 51.10202 -114.10610 10320 ft 196 kts 192°
2026-05-06 03:21 51.08881 -114.10913 11047 ft 189 kts 194°
2026-05-06 03:21 51.07548 -114.11291 11415 ft 206 kts 197°
2026-05-06 03:21 51.06058 -114.11802 11678 ft 228 kts 198°
2026-05-06 03:21 51.04460 -114.12408 11934 ft 249 kts 198°
2026-05-06 03:22 51.02761 -114.13071 12577 ft 252 kts 198°
2026-05-06 03:22 51.01053 -114.13737 13251 ft 254 kts 198°
2026-05-06 03:22 50.99320 -114.14412 13853 ft 259 kts 198°
2026-05-06 03:22 50.98841 -114.14598 14005 ft 260 kts 198°